"Pseudo-MPEC" for SO0005e

Created 2026 May 17 2:35:08 UT using Find_Orb

Click here for an explanation of pseudo-MPECs

 
 Astrometry: 
     SO0005e*0B2026 05 11.70462714 49 28.992-30 04 52.18   ~5C2Z 17.35VVNEOCPE54
     SO0005e 0B2026 05 11.70605314 50 01.512-30 08 00.46   ~5C2Z 17.7 VVNEOCPE54
     SO0005e 0B2026 05 11.70759714 50 36.984-30 11 24.68   ~5C2Z 17.46VVNEOCPE54

Station data:
(E54) TransAstra at Springbrook  (S31.281736 E149.081470)  Australia/NSW.

Orbital elements:  SO0005e
   Perigee 2026 May 11.840235 +/- 39.9 TT = 20:09:56.2 (JD 2461172.340235)
Epoch 2026 May 12.0 TT = JDT 2461172.5                           AutoNEOCP
q 66245.54873 +/- 2.11e+7           (J2000 equator)
H   30.40 G 0.15                    Peri.  312.702111 +/- 58
                                    Node   353.901490 +/- 90
e  91.56795131 +/- 0.238            Incl.   37.557354 +/- 2.9
From 3 observations 2026 May 11 (4.3 min); mean residual 1".25
Residuals in arcseconds: 
260511 E54  1.1-  .53+    260511 E54  2.3+  1.0-    260511 E54  1.1-  .52+    

Ephemerides (geocentric):
Date (UTC) HH   RA             Dec           delta  r     elong  mag " sig PA
---- --------  ------------   ------------  ------ ------ -----  --- --------
2026 05 17 03  02 01 45.701   +24 32 15.84  .07142 .94541  22.1 34??  67d 111
2026 05 17 04  02 01 46.694   +24 32 19.93  .07198 .94491  22.1 34??  67d 111
2026 05 17 05  02 01 47.679   +24 32 23.94  .07255 .94442  22.1 34??  67d 110
2026 05 17 06  02 01 48.658   +24 32 27.87  .07312 .94393  22.2 34??  67d 110
2026 05 17 07  02 01 49.630   +24 32 31.72  .07368 .94344  22.2 34??  67d 110
2026 05 17 08  02 01 50.597   +24 32 35.49  .07425 .94294  22.2 34??  67d 110
2026 05 17 09  02 01 51.557   +24 32 39.18  .07481 .94245  22.2 34??  67d 110
2026 05 17 10  02 01 52.511   +24 32 42.80  .07538 .94196  22.3 34??  67d 110
2026 05 17 11  02 01 53.460   +24 32 46.34  .07594 .94147  22.3 34??  67d 110
2026 05 17 12  02 01 54.403   +24 32 49.81  .07651 .94098  22.3 34??  67d 110
2026 05 17 13  02 01 55.341   +24 32 53.21  .07707 .94049  22.4 34??  67d 110
2026 05 17 14  02 01 56.274   +24 32 56.53  .07764 .94000  22.4 34??  67d 110
2026 05 17 15  02 01 57.202   +24 32 59.79  .07821 .93951  22.4 34??  67d 110
2026 05 17 16  02 01 58.125   +24 33 02.99  .07877 .93902  22.5 34??  67d 110
2026 05 17 17  02 01 59.044   +24 33 06.11  .07934 .93853  22.5 34??  67d 110
2026 05 17 18  02 01 59.959   +24 33 09.18  .07990 .93804  22.5 34??  67d 110
2026 05 17 19  02 02 00.869   +24 33 12.18  .08047 .93755  22.6 34??  67d 110
2026 05 17 20  02 02 01.776   +24 33 15.11  .08104 .93706  22.6 34??  67d 110
2026 05 17 21  02 02 02.679   +24 33 17.99  .08160 .93657  22.6 34??  67d 110
2026 05 17 22  02 02 03.578   +24 33 20.81  .08217 .93608  22.7 34??  67d 110
2026 05 17 23  02 02 04.473   +24 33 23.57  .08274 .93560  22.7 34??  67d 110
2026 05 18 00  02 02 05.366   +24 33 26.27  .08330 .93511  22.7 34??  67d 110
2026 05 18 01  02 02 06.255   +24 33 28.92  .08387 .93462  22.7 34??  67d 110
2026 05 18 02  02 02 07.141   +24 33 31.51  .08444 .93414  22.8 34??  67d 110
2026 05 18 03  02 02 08.023   +24 33 34.04  .08500 .93365  22.8 34??  67d 110
2026 05 18 04  02 02 08.904   +24 33 36.53  .08557 .93316  22.8 34??  64d 112
2026 05 18 05  02 02 09.781   +24 33 38.96  .08614 .93268  22.9 34??  64d 112
2026 05 18 06  02 02 10.656   +24 33 41.34  .08670 .93219  22.9 34??  64d 113
2026 05 18 07  02 02 11.529   +24 33 43.67  .08727 .93171  22.9 34??  64d 113
2026 05 18 08  02 02 12.399   +24 33 45.95  .08784 .93122  23.0 34??  64d 113
2026 05 18 09  02 02 13.267   +24 33 48.18  .08840 .93074  23.0 34??  64d 113
2026 05 18 10  02 02 14.133   +24 33 50.36  .08897 .93025  23.0 34??  64d 113
2026 05 18 11  02 02 14.997   +24 33 52.50  .08954 .92977  23.1 34??  64d 113
2026 05 18 12  02 02 15.859   +24 33 54.59  .09011 .92929  23.1 34??  64d 113
2026 05 18 13  02 02 16.719   +24 33 56.63  .09067 .92880  23.1 34??  64d 113
2026 05 18 14  02 02 17.578   +24 33 58.63  .09124 .92832  23.2 34??  66d 112
2026 05 18 15  02 02 18.435   +24 34 00.59  .09181 .92784  23.2 34??  66d 112
2026 05 18 16  02 02 19.291   +24 34 02.51  .09238 .92735  23.2 34??  66d 111
2026 05 18 17  02 02 20.146   +24 34 04.38  .09294 .92687  23.2 34??  66d 111
2026 05 18 18  02 02 20.999   +24 34 06.21  .09351 .92639  23.3 34??  66d 111
2026 05 18 19  02 02 21.851   +24 34 08.00  .09408 .92591  23.3 34??  66d 111
2026 05 18 20  02 02 22.703   +24 34 09.74  .09465 .92543  23.3 34??  66d 111
2026 05 18 21  02 02 23.553   +24 34 11.45  .09522 .92495  23.4 34??  67d 111
2026 05 18 22  02 02 24.402   +24 34 13.12  .09578 .92447  23.4 34??  67d 111
2026 05 18 23  02 02 25.251   +24 34 14.75  .09635 .92399  23.4 34??  67d 111
2026 05 19 00  02 02 26.099   +24 34 16.35  .09692 .92351  23.5 34??  67d 111
2026 05 19 01  02 02 26.946   +24 34 17.91  .09749 .92303  23.5 34??  67d 111
2026 05 19 02  02 02 27.793   +24 34 19.43  .09806 .92255  23.5 34??  67d 111